Location: Dappach
(48.9767°N, 9.6998°E)
Time: 19:50:06
(UTC+00:00)

COSMOS 2428 - Pass Details

Date: 19 August 2024
Orbit: 842 x 857 km, 70.9° (Epoch: 09 September)

Event Time Altitude Azimuth Distance (km) Brightness Sun altitude
Exits shadow 22:27:37 20° 80° (E) 1,856 4.4 -27.4°
Drops below altitude 10° 22:30:27 10° 52° (NE) 2,488 5.4 -27.5°
Sets 22:33:24 0° 38° (NE) 3,432 6.4 -27.6°
